NOAA-18
1 28654U 05018A 10223.87989485 -.00000082 00000-0 -20612-4 0 04403
2 28654 098.9525 169.9921 0013316 256.5487 103.4190 14.11378480269296
NOAA-19
1 33591U 09005A 10223.73830147 .00000291 00000-0 18559-3 0 06367
2 33591 098.7898 164.6837 0014836 129.4343 230.8125 14.11075876077741
HUBBLE
1 20580U 90037B 10223.16905948 .00000524 00000-0 27229-4 0 6257
2 20580 028.4692 240.9217 0003329 071.6612 288.4341 15.01013541913029
ISS
1 25544U 98067A 10225.02010417 .00014034 00000-0 11052-3 0 6963
2 25544 051.6476 299.7730 0006444 215.8269 153.3787 15.71754969672417
CO-58
1 28895U 05043F 10223.70311294 .00000222 00000-0 55593-4 0 06555
2 28895 098.0073 106.3205 0018990 109.9426 250.3848 14.59919241255081
FALCON
1 30776U 07006E 10224.71765493 .00000940 00000-0 70104-4 0 8906
2 30776 035.4336 061.0626 0002017 310.3431 049.7107 15.03759662188576
MAST
1 31126U 07012K 10223.63473047 .00000294 00000-0 76457-4 0 09375
2 31126 097.9331 262.7688 0095781 054.2605 306.7435 14.53610204176118
CAPE1
1 31130U 07012P 10224.08448448 .00000331 00000-0 86386-4 0 9562
2 31130 097.9387 260.4955 0103850 061.0035 300.1530 14.52209208175778
COMPASS
1 32787U 08021E 10223.19894539 .00000267 00000-0 40309-4 0 07470
2 32787 097.8911 287.1901 0016915 105.4219 254.8861 14.81931403123640
AAUSAT2
1 32788U 08021F 10223.12912983 .00000042 00000-0 11904-4 0 07412
2 32788 097.8920 287.2623 0016711 105.5452 254.7649 14.82075586123642
DO-64
1 32789U 08021G 10223.87481527 .00000649 00000-0 87832-4 0 07607
2 32789 097.8983 288.5337 0016775 101.9130 258.3964 14.82249335123758
CO-66
1 32791U 08021J 10223.22902863 .00000492 00000-0 68964-4 0 07410
2 32791 097.8925 287.2283 0017232 103.3434 256.9670 14.81709581123600
RS-30
1 32953U 08025A 10224.47181116 .00000010 00000-0 00000 0 0 9467
2 32953 082.5037 354.6735 0018392 343.1343 016.9123 12.43007188100733
TACSAT-3
1 35001U 09028A 10223.48319329 .00004734 00000-0 11210-3 0 03715
2 35001 040.4548 241.8410 0020749 056.5261 303.7534 15.42271497069173
PHARMSAT
1 35002U 09028B 10223.41895536 .00004059 00000-0 95267-4 0 03409
2 35002 040.4685 240.0411 0023287 059.6564 300.6551 15.42748425069184
HAWKSAT1
1 35003U 09028C 10223.40311774 .00009246 00000-0 18602-3 0 03697
2 35003 040.4604 233.2284 0020885 077.7434 282.5719 15.46327500069260
CP6
1 35004U 09028D 10223.43201366 .00011624 00000-0 22470-3 0 3574
2 35004 040.4609 231.6757 0019482 084.2307 276.0729 15.47343120 69273
AEROCUB3
1 35005U 09028E 10224.35753401 .00043345 00000-0 62550-3 0 4073
2 35005 040.4682 220.4446 0018057 110.0933 250.1826 15.54961068 69485
CASTOR
1 35694U 09038F 10224.44218752 .00696839 11998-4 22970-3 0 6374
2 35694 051.6228 255.5901 0005438 007.4300 352.7329 16.25174980 60127
METEOR-M
1 35865U 09049A 10224.57232722 .00000176 00000-0 10000-3 0 5532
2 35865 098.7537 277.9558 0001758 186.2688 173.8464 14.21831220 46738
RS-38
1 35869U 09049E 10224.53770658 .00000177 00000-0 10000-3 0 5673
2 35869 098.7530 277.9577 0004134 192.9379 167.1658 14.21986469 46735
